Time,TemperatureF,DewpointF,PressureIn,WindDirection,WindDirectionDegrees,WindSpeedMPH,WindSpeedGustMPH,Humidity,HourlyPrecipIn,Conditions,Clouds,dailyrainin,SolarRadiationWatts/m^2,SoftwareType,DateUTC
2013-04-10 00:02:00,42.0,31.0,-100.00,ENE,76,2.0,4.0,64,0.00,,,-99.99,0.000000,,2013-04-10 07:02:00,
2013-04-10 00:32:00,34.0,27.0,-100.00,SE,130,0.0,13.0,74,0.00,,,0.00,0.000000,,2013-04-10 07:32:00,
2013-04-10 01:32:00,33.0,27.0,-100.00,West,263,0.0,5.0,79,-99.99,,,0.00,0.000000,,2013-04-10 08:32:00,
2013-04-10 02:32:00,33.0,25.0,-100.00,SSE,168,0.0,6.0,72,-99.99,,,0.00,0.000000,,2013-04-10 09:32:00,
2013-04-10 02:43:00,33.0,25.0,-100.00,SSE,168,0.0,6.0,72,-99.99,,,0.00,0.000000,,2013-04-10 09:43:00,
2013-04-10 03:33:00,32.0,24.0,-100.00,SW,231,0.0,6.0,73,-99.99,,,0.00,0.000000,,2013-04-10 10:33:00,
2013-04-10 06:32:00,32.0,22.0,-100.00,WSW,239,0.0,4.0,66,-99.99,,,0.00,0.000000,,2013-04-10 13:32:00,
2013-04-10 07:22:00,41.0,21.0,-100.00,NE,35,4.0,9.0,45,0.00,,,0.00,0.000000,,2013-04-10 14:22:00,
2013-04-10 07:33:00,41.0,21.0,-100.00,NE,35,4.0,9.0,45,0.00,,,0.00,0.000000,,2013-04-10 14:33:00,
2013-04-10 07:42:00,41.0,21.0,-100.00,NE,35,4.0,9.0,45,0.00,,,0.00,0.000000,,2013-04-10 14:42:00,
2013-04-10 07:52:00,41.0,21.0,-100.00,NE,35,4.0,9.0,45,0.00,,,0.00,0.000000,,2013-04-10 14:52:00,
2013-04-10 08:02:00,41.0,21.0,-100.00,NE,35,4.0,9.0,45,0.00,,,0.00,0.000000,,2013-04-10 15:02:00,
2013-04-10 08:33:00,56.0,24.0,-100.00,NE,44,4.0,9.0,29,0.00,,,0.00,160.000000,,2013-04-10 15:33:00,
2013-04-10 08:52:00,56.0,24.0,-100.00,NE,44,4.0,9.0,29,0.00,,,0.00,160.000000,,2013-04-10 15:52:00,
2013-04-10 09:02:00,56.0,24.0,-100.00,NE,44,4.0,9.0,29,0.00,,,0.00,160.000000,,2013-04-10 16:02:00,
2013-04-10 09:23:00,61.0,17.0,-100.00,NNE,16,11.0,16.0,18,0.00,,,0.00,353.000000,,2013-04-10 16:23:00,
2013-04-10 09:33:00,61.0,17.0,-100.00,NNE,16,11.0,16.0,18,0.00,,,0.00,353.000000,,2013-04-10 16:33:00,
2013-04-10 09:43:00,61.0,17.0,-100.00,NNE,16,11.0,16.0,18,0.00,,,0.00,353.000000,,2013-04-10 16:43:00,
2013-04-10 09:53:00,61.0,17.0,-100.00,NNE,16,11.0,16.0,18,0.00,,,0.00,353.000000,,2013-04-10 16:53:00,
2013-04-10 10:02:00,61.0,17.0,-100.00,NNE,16,11.0,16.0,18,0.00,,,0.00,353.000000,,2013-04-10 17:02:00,
2013-04-10 10:33:00,64.0,17.0,-100.00,NNE,23,13.0,25.0,16,0.00,,,0.00,548.000000,,2013-04-10 17:33:00,
2013-04-10 10:43:00,64.0,17.0,-100.00,NNE,23,13.0,25.0,16,0.00,,,0.00,548.000000,,2013-04-10 17:43:00,
2013-04-10 10:52:00,64.0,17.0,-100.00,NNE,23,13.0,25.0,16,0.00,,,0.00,548.000000,,2013-04-10 17:52:00,
2013-04-10 11:02:00,64.0,17.0,-100.00,NNE,23,13.0,25.0,16,0.00,,,0.00,548.000000,,2013-04-10 18:02:00,
2013-04-10 11:23:00,66.0,15.0,-100.00,NNE,25,10.0,26.0,14,0.00,,,0.00,676.000000,,2013-04-10 18:23:00,
2013-04-10 11:33:00,66.0,15.0,-100.00,NNE,25,10.0,26.0,14,0.00,,,0.00,676.000000,,2013-04-10 18:33:00,
2013-04-10 11:43:00,66.0,15.0,-100.00,NNE,25,10.0,26.0,14,0.00,,,0.00,676.000000,,2013-04-10 18:43:00,
2013-04-10 11:52:00,66.0,15.0,-100.00,NNE,25,10.0,26.0,14,0.00,,,0.00,676.000000,,2013-04-10 18:52:00,
2013-04-10 12:02:00,66.0,15.0,-100.00,NNE,25,10.0,26.0,14,0.00,,,0.00,676.000000,,2013-04-10 19:02:00,
2013-04-10 12:22:00,66.0,15.0,-100.00,NNE,28,7.0,21.0,14,0.00,,,0.00,751.000000,,2013-04-10 19:22:00,
2013-04-10 12:33:00,66.0,15.0,-100.00,NNE,28,7.0,21.0,14,0.00,,,0.00,751.000000,,2013-04-10 19:33:00,
2013-04-10 12:42:00,66.0,15.0,-100.00,NNE,28,7.0,21.0,14,0.00,,,0.00,751.000000,,2013-04-10 19:42:00,
2013-04-10 12:53:00,66.0,15.0,-100.00,NNE,28,7.0,21.0,14,0.00,,,0.00,751.000000,,2013-04-10 19:53:00,
2013-04-10 13:02:00,66.0,15.0,-100.00,NNE,28,7.0,21.0,14,0.00,,,0.00,751.000000,,2013-04-10 20:02:00,
2013-04-10 13:33:00,70.0,15.0,-100.00,NNE,30,7.0,20.0,12,0.00,,,0.00,741.000000,,2013-04-10 20:33:00,
2013-04-10 13:42:00,70.0,15.0,-100.00,NNE,30,7.0,20.0,12,0.00,,,0.00,741.000000,,2013-04-10 20:42:00,
2013-04-10 13:52:00,70.0,15.0,-100.00,NNE,30,7.0,20.0,12,0.00,,,0.00,741.000000,,2013-04-10 20:52:00,
2013-04-10 14:02:00,70.0,15.0,-100.00,NNE,30,7.0,20.0,12,0.00,,,0.00,741.000000,,2013-04-10 21:02:00,
2013-04-10 14:33:00,73.0,13.0,-100.00,NNE,27,7.0,20.0,10,0.00,,,0.00,679.000000,,2013-04-10 21:33:00,
2013-04-10 14:43:00,73.0,13.0,-100.00,NNE,27,7.0,20.0,10,0.00,,,0.00,679.000000,,2013-04-10 21:43:00,
2013-04-10 14:53:00,73.0,13.0,-100.00,NNE,27,7.0,20.0,10,0.00,,,0.00,679.000000,,2013-04-10 21:53:00,
2013-04-10 15:02:00,73.0,13.0,-100.00,NNE,27,7.0,20.0,10,0.00,,,0.00,679.000000,,2013-04-10 22:02:00,
2013-04-10 15:34:00,71.0,28.0,-100.00,South,189,9.0,20.0,20,0.00,,,0.00,533.000000,,2013-04-10 22:34:00,
2013-04-10 15:42:00,71.0,28.0,-100.00,South,189,9.0,20.0,20,0.00,,,0.00,533.000000,,2013-04-10 22:42:00,
2013-04-10 15:52:00,71.0,28.0,-100.00,South,189,9.0,20.0,20,0.00,,,0.00,533.000000,,2013-04-10 22:52:00,
2013-04-10 16:02:00,71.0,28.0,-100.00,South,189,9.0,20.0,20,0.00,,,0.00,533.000000,,2013-04-10 23:02:00,
2013-04-10 16:33:00,68.0,23.0,-100.00,NW,306,7.0,23.0,18,0.00,,,0.00,378.000000,,2013-04-10 23:33:00,
2013-04-10 16:43:00,68.0,23.0,-100.00,NW,306,7.0,23.0,18,0.00,,,0.00,378.000000,,2013-04-10 23:43:00,
2013-04-10 16:52:00,68.0,23.0,-100.00,NW,306,7.0,23.0,18,0.00,,,0.00,378.000000,,2013-04-10 23:52:00,
2013-04-10 17:02:00,68.0,23.0,-100.00,NW,306,7.0,23.0,18,0.00,,,0.00,378.000000,,2013-04-11 00:02:00,
2013-04-10 17:32:00,69.0,24.0,-100.00,NNE,19,5.0,21.0,18,0.00,,,0.00,178.000000,,2013-04-11 00:32:00,
2013-04-10 17:42:00,69.0,24.0,-100.00,NNE,19,5.0,21.0,18,0.00,,,0.00,178.000000,,2013-04-11 00:42:00,
2013-04-10 17:52:00,69.0,24.0,-100.00,NNE,19,5.0,21.0,18,0.00,,,0.00,178.000000,,2013-04-11 00:52:00,
2013-04-10 18:02:00,69.0,24.0,-100.00,NNE,19,5.0,21.0,18,0.00,,,0.00,178.000000,,2013-04-11 01:02:00,
2013-04-10 18:32:00,64.0,24.0,-100.00,NE,35,7.0,26.0,22,0.00,,,0.00,0.000000,,2013-04-11 01:32:00,
2013-04-10 18:42:00,64.0,24.0,-100.00,NE,35,7.0,26.0,22,0.00,,,0.00,0.000000,,2013-04-11 01:42:00,
2013-04-10 18:52:00,64.0,24.0,-100.00,NE,35,7.0,26.0,22,0.00,,,0.00,0.000000,,2013-04-11 01:52:00,
2013-04-10 19:02:00,64.0,24.0,-100.00,NE,35,7.0,26.0,22,0.00,,,0.00,0.000000,,2013-04-11 02:02:00,
2013-04-10 19:32:00,60.0,23.0,-100.00,NW,306,4.0,17.0,24,0.00,,,0.00,0.000000,,2013-04-11 02:32:00,
2013-04-10 19:42:00,60.0,23.0,-100.00,NW,306,4.0,17.0,24,0.00,,,0.00,0.000000,,2013-04-11 02:42:00,
2013-04-10 19:52:00,60.0,23.0,-100.00,NW,306,4.0,17.0,24,0.00,,,0.00,0.000000,,2013-04-11 02:52:00,
2013-04-10 20:02:00,60.0,23.0,-100.00,NW,306,4.0,17.0,24,0.00,,,0.00,0.000000,,2013-04-11 03:02:00,
2013-04-10 20:03:00,58.0,23.0,-100.00,NNW,340,5.0,15.0,26,0.00,,,0.00,0.000000,,2013-04-11 03:03:00,
2013-04-10 20:33:00,58.0,23.0,-100.00,NNW,340,5.0,15.0,26,0.00,,,0.00,0.000000,,2013-04-11 03:33:00,
2013-04-10 20:43:00,58.0,23.0,-100.00,NNW,340,5.0,15.0,26,0.00,,,0.00,0.000000,,2013-04-11 03:43:00,
2013-04-10 20:53:00,58.0,23.0,-100.00,NNW,340,5.0,15.0,26,0.00,,,0.00,0.000000,,2013-04-11 03:53:00,
2013-04-10 21:33:00,56.0,22.0,-100.00,NNW,348,5.0,15.0,26,0.00,,,0.00,0.000000,,2013-04-11 04:33:00,
2013-04-10 21:43:00,56.0,22.0,-100.00,NNW,348,5.0,15.0,26,0.00,,,0.00,0.000000,,2013-04-11 04:43:00,
2013-04-10 21:52:00,56.0,22.0,-100.00,NNW,348,5.0,15.0,26,0.00,,,0.00,0.000000,,2013-04-11 04:52:00,
2013-04-10 22:02:00,56.0,22.0,-100.00,NNW,348,5.0,15.0,26,0.00,,,0.00,0.000000,,2013-04-11 05:02:00,
2013-04-10 22:23:00,49.0,23.0,-100.00,East,86,0.0,14.0,35,0.00,,,0.00,0.000000,,2013-04-11 05:23:00,
2013-04-10 22:32:00,49.0,23.0,-100.00,East,86,0.0,14.0,35,0.00,,,0.00,0.000000,,2013-04-11 05:32:00,
2013-04-10 22:42:00,49.0,23.0,-100.00,East,86,0.0,14.0,35,0.00,,,0.00,0.000000,,2013-04-11 05:42:00,
2013-04-10 22:52:00,49.0,23.0,-100.00,East,86,0.0,14.0,35,0.00,,,0.00,0.000000,,2013-04-11 05:52:00,
2013-04-10 23:02:00,49.0,23.0,-100.00,East,86,0.0,14.0,35,0.00,,,0.00,0.000000,,2013-04-11 06:02:00,
2013-04-10 23:32:00,42.0,25.0,-100.00,SSW,206,0.0,7.0,51,0.00,,,0.00,0.000000,,2013-04-11 06:32:00,
2013-04-10 23:42:00,42.0,25.0,-100.00,SSW,206,0.0,7.0,51,0.00,,,0.00,0.000000,,2013-04-11 06:42:00,
2013-04-10 23:52:00,42.0,25.0,-100.00,SSW,206,0.0,7.0,51,0.00,,,0.00,0.000000,,2013-04-11 06:52:00,